Regional Weather Roundup
Issued by NWS

Home | Current Version | Previous Version | Graphics & Text | Print | Product List | Glossary On
Versions: 1 2 3 4 5 6 7 8 9 10 11 12 13 14 15 16 17 18 19 20 21 22 23 24 25 26 27 28 29 30 31 32 33 34 35 36 37 38 39 40 41 42 43 44 45 46 47 48 49 50
000
ASUS43 KLSX 210659
RWRMO

WEATHER SUMMARY FOR MISSOURI
NATIONAL WEATHER SERVICE SPRINGFIELD MO
200 AM CDT THU AUG 21 2014

NOTE: "FAIR" INDICATES FEW OR NO CLOUDS BELOW 12,000 FEET WITH NO
       SIGNIFICANT WEATHER AND/OR OBSTRUCTIONS TO VISIBILITY.
       CURRENT SKY AND/OR WEATHER CONDITIONS ARE NOT AVAILABLE FOR
       CHILLICOTHE AND FARMINGTON.

MOZ001>031-035>038-043-044-053-054-210800-
...NORTHERN AND WESTERN MISSOURI...

CITY           SKY/WX    TMP DP  RH WIND       PRES   REMARKS
KANSAS CTY INT PTCLDY    80  68  66 S14       29.89F
KANSAS C DTWN  PTCLDY    82  67  60 SW17G25   29.89S
LEE`S SUMMIT   CLEAR     78  66  66 S10       29.92S
ST JOSEPH      PTCLDY    79  69  71 S12       29.86F
CHILLICOTHE      N/A     79  69  71 S5        29.91S
KIRKSVILLE     CLEAR     76  70  82 S8        29.93S

$$
MOZ066>068-077>081-088>096-101>105-210800-
...SOUTHWEST MISSOURI...

CITY           SKY/WX    TMP DP  RH WIND       PRES   REMARKS
SPRINGFIELD    CLEAR     76  67  73 S12       29.99F
JOPLIN         CLEAR     78  68  71 S13       29.97S

$$
MOZ032>034-039>042-045>050-055>058-069>072-210800-
...CENTRAL MISSOURI...

CITY           SKY/WX    TMP DP  RH WIND       PRES   REMARKS
COLUMBIA       CLEAR     73  70  90 SE7       29.96F
JEFFERSON CITY CLEAR     71  69  93 SE6       29.95F
ROLLA          CLEAR     73  64  73 S9        29.99R
SEDALIA        CLEAR     79  65  62 S10       29.95F
OSAGE BEACH    CLEAR     75  64  69 S3        29.98S

$$
MOZ051-052-059>065-210800-
...EAST CENTRAL MISSOURI...

CITY           SKY/WX    TMP DP  RH WIND       PRES   REMARKS
ST LOUIS INTL  MOCLDY    78  74  87 S7        29.97F
SPIRIT OF STL  CLEAR     72  70  93 CALM      29.95S
ST CHARLES     CLEAR     71  69  93 E5        29.95S

$$
MOZ072>076-082>087-097>100-106>115-210800-
...SOUTH CENTRAL AND SOUTHEAST MISSOURI...

CITY           SKY/WX    TMP DP  RH WIND       PRES   REMARKS
CAPE GIRARDEAU MOCLDY    78  73  84 S8        30.00F
FARMINGTON     MOCLDY    79  72  78 SW9       30.02F
POPLAR BLUFF   MOCLDY    76  71  85 S3        30.00S
WEST PLAINS    PTCLDY    75  66  73 SW5       30.04F

$$


USA.gov is the U.S. government's official web portal to all federal, state and local government web resources and services.